Location: Stoke Bliss
(52.2667°N, 2.5167°W)
Time: 14:27:34
(UTC+00:00)

Cosmos 1943 Rocket - Pass Details

Date: 03 March 2021
Orbit: 811 x 844 km, 71.0° (Epoch: 13 April)

Event Time Altitude Azimuth Distance (km) Brightness Sun altitude
Rises 20:40:53 0° 329° (NNW) 3,416 6.2 -25.8°
Reaches altitude 10° 20:43:40 10° 340° (NNW) 2,478 5.2 -26.2°
Enters shadow 20:48:16 29° 34° (NE) 1,502 3.4 -26.9°
